Location: Beneden-Haastrecht
(52.0012°N, 4.7557°E)
Time: 05:07:46
(UTC+00:00)

Cosmos 1689 Rocket - Pass Details

Date: 24 October 2020
Orbit: 360 x 375 km, 97.5° (Epoch: 25 November)

Event Time Altitude Azimuth Distance (km) Brightness Sun altitude
Rises 18:40:46 0° 4° (N) 2,223 6.0 -21.1°
Reaches altitude 10° 18:42:55 10° 350° (N) 1,366 5.0 -21.5°
Maximum altitude 18:45:21 25° 293° (WNW) 793 4.4 -21.8°
Drops below altitude 10° 18:47:46 10° 235° (SW) 1,350 5.4 -22.2°
Sets 18:49:52 0° 222° (SW) 2,190 6.3 -22.5°
